When you browse on this site, cookies collect data to enhance your experience and personalize the content and advertising you see.
Visit our Privacy Policy to learn more. By continuing to use the site, you agree to this use of cookies and data.
  • In Austria
  • List of Countries
  • For 7 days
  • Water Temperature
  • Satellite Maps
  • Weather Map
  • News
  • Weather Widgets
  • user-avatar
    Login

    Hourly Weather Staunton

    Today, 25 April, Thursday

    Time Temperature Precipitation Wind Pressure Humidity
    00:00 +14°C° 0.2 mm 1 mps 719 mmHg 85%
    01:00 +14°C° 0 mm 1 mps 718 mmHg 83%
    02:00 +14°C° 0.1 mm 1 mps 718 mmHg 82%
    03:00 +13°C° 0.1 mm 0 mps 718 mmHg 81%
    04:00 +12°C° 0.1 mm 0 mps 718 mmHg 80%
    05:00 +13°C° 0 mm 0 mps 719 mmHg 78%
    06:00 +14°C° 0 mm 0 mps 719 mmHg 76%
    07:00 +15°C° 0 mm 1 mps 719 mmHg 75%
    08:00 +18°C° 0 mm 1 mps 719 mmHg 70%
    09:00 +20°C° 0 mm 1 mps 719 mmHg 65%
    10:00 +22°C° 0 mm 1 mps 719 mmHg 59%
    11:00 +23°C° 0.1 mm 2 mps 719 mmHg 59%
    12:00 +24°C° 0.1 mm 2 mps 719 mmHg 58%
    13:00 +25°C° 0.1 mm 2 mps 718 mmHg 58%
    14:00 +25°C° 0.7 mm 2 mps 718 mmHg 61%
    15:00 +25°C° 0.7 mm 2 mps 718 mmHg 64%
    16:00 +25°C° 0.7 mm 2 mps 717 mmHg 67%
    17:00 +23°C° 1.8 mm 2 mps 717 mmHg 74%
    18:00 +20°C° 1.8 mm 2 mps 717 mmHg 81%
    19:00 +19°C° 1.8 mm 2 mps 717 mmHg 88%
    20:00 +18°C° 0.2 mm 2 mps 717 mmHg 89%
    21:00 +17°C° 0.2 mm 2 mps 716 mmHg 90%
    22:00 +16°C° 0.2 mm 2 mps 716 mmHg 91%
    23:00 +16°C° 0.1 mm 2 mps 716 mmHg 90%

    Tomorrow, 26 April, Friday

    Time Temperature Precipitation Wind Pressure Humidity
    00:00 +15°C° 0.1 mm 2 mps 715 mmHg 89%
    01:00 +15°C° 0.1 mm 2 mps 714 mmHg 89%
    02:00 +15°C° 0.1 mm 2 mps 714 mmHg 91%
    03:00 +14°C° 0.1 mm 2 mps 713 mmHg 93%
    04:00 +14°C° 0.1 mm 2 mps 713 mmHg 95%
    05:00 +14°C° 0.5 mm 3 mps 712 mmHg 95%
    06:00 +14°C° 0.5 mm 3 mps 711 mmHg 95%
    07:00 +14°C° 0.5 mm 3 mps 710 mmHg 96%
    08:00 +15°C° 1 mm 4 mps 710 mmHg 94%
    09:00 +16°C° 1 mm 5 mps 709 mmHg 92%
    10:00 +16°C° 1 mm 6 mps 708 mmHg 90%
    11:00 +15°C° 2.2 mm 5 mps 708 mmHg 90%
    12:00 +15°C° 2.2 mm 5 mps 708 mmHg 90%
    13:00 +14°C° 2.2 mm 5 mps 708 mmHg 90%
    14:00 +14°C° 0.1 mm 6 mps 708 mmHg 83%
    15:00 +15°C° 0.1 mm 7 mps 709 mmHg 77%
    16:00 +15°C° 0.1 mm 8 mps 709 mmHg 70%
    17:00 +12°C° 0 mm 7 mps 710 mmHg 68%
    18:00 +11°C° 0 mm 7 mps 710 mmHg 66%
    19:00 +9°C° 0 mm 6 mps 711 mmHg 64%
    20:00 +9°C° 0 mm 6 mps 712 mmHg 66%
    21:00 +8°C° 0 mm 5 mps 712 mmHg 68%
    22:00 +8°C° 0 mm 5 mps 713 mmHg 70%
    23:00 +7°C° 0 mm 5 mps 713 mmHg 68%

    Day after tomorrow, 27 April, Saturday

    Time Temperature Precipitation Wind Pressure Humidity
    00:00 +6°C° 0 mm 5 mps 713 mmHg 66%
    01:00 +5°C° 0 mm 5 mps 714 mmHg 64%
    02:00 +5°C° 0 mm 5 mps 714 mmHg 64%
    03:00 +4°C° 0 mm 6 mps 714 mmHg 63%
    04:00 +4°C° 0 mm 6 mps 714 mmHg 62%
    05:00 +4°C° 0 mm 7 mps 715 mmHg 55%
    06:00 +5°C° 0 mm 9 mps 715 mmHg 48%
    07:00 +5°C° 0 mm 10 mps 715 mmHg 41%
    08:00 +7°C° 0 mm 10 mps 716 mmHg 37%
    09:00 +8°C° 0 mm 11 mps 716 mmHg 33%
    10:00 +11°C° 0 mm 11 mps 717 mmHg 29%
    11:00 +12°C° 0 mm 9 mps 717 mmHg 29%
    12:00 +15°C° 0 mm 8 mps 717 mmHg 28%
    13:00 +16°C° 0 mm 6 mps 717 mmHg 28%
    14:00 +16°C° 0 mm 6 mps 717 mmHg 30%
    15:00 +16°C° 0 mm 6 mps 717 mmHg 33%
    16:00 +16°C° 0 mm 6 mps 716 mmHg 35%
    17:00 +14°C° 0 mm 5 mps 717 mmHg 42%
    18:00 +12°C° 0 mm 4 mps 717 mmHg 48%
    19:00 +10°C° 0 mm 2 mps 717 mmHg 54%
    20:00 +10°C° 0.2 mm 2 mps 718 mmHg 60%
    21:00 +10°C° 0.2 mm 1 mps 718 mmHg 66%
    22:00 +10°C° 0.2 mm 1 mps 718 mmHg 73%
    23:00 +10°C° 0 mm 1 mps 718 mmHg 75%

    28 April, Sunday

    Time Temperature Precipitation Wind Pressure Humidity
    00:00 +10°C° 0 mm 1 mps 718 mmHg 77%
    01:00 +10°C° 0 mm 1 mps 717 mmHg 79%
    02:00 +10°C° 0 mm 1 mps 717 mmHg 81%
    03:00 +10°C° 0 mm 1 mps 716 mmHg 84%
    04:00 +8°C° 0 mm 2 mps 716 mmHg 86%
    05:00 +9°C° 0.1 mm 2 mps 716 mmHg 86%
    06:00 +9°C° 0.1 mm 2 mps 716 mmHg 87%
    07:00 +9°C° 0.1 mm 2 mps 716 mmHg 87%
    08:00 +12°C° 0 mm 4 mps 716 mmHg 80%
    09:00 +15°C° 0 mm 6 mps 716 mmHg 73%
    10:00 +18°C° 0 mm 8 mps 716 mmHg 65%
    11:00 +18°C° 0 mm 8 mps 717 mmHg 62%
    12:00 +20°C° 0 mm 8 mps 717 mmHg 58%
    13:00 +19°C° 0 mm 9 mps 718 mmHg 55%
    14:00 +18°C° 0 mm 8 mps 719 mmHg 56%
    15:00 +17°C° 0 mm 7 mps 720 mmHg 58%
    16:00 +16°C° 0 mm 6 mps 721 mmHg 60%
    17:00 +14°C° 0 mm 5 mps 722 mmHg 65%
    18:00 +12°C° 0 mm 4 mps 723 mmHg 71%
    19:00 +10°C° 0 mm 3 mps 724 mmHg 76%
    20:00 +8°C° 0 mm 3 mps 725 mmHg 80%
    21:00 +7°C° 0 mm 2 mps 726 mmHg 84%
    22:00 +5°C° 0 mm 2 mps 727 mmHg 89%
    23:00 +4°C° 0 mm 2 mps 727 mmHg 90%

    29 April, Monday

    Time Temperature Precipitation Wind Pressure Humidity
    00:00 +3°C° 0 mm 2 mps 728 mmHg 91%
    01:00 +3°C° 0 mm 2 mps 728 mmHg 92%
    02:00 +2°C° 0 mm 2 mps 728 mmHg 93%
    03:00 +2°C° 0 mm 1 mps 728 mmHg 94%
    04:00 +1°C° 0 mm 1 mps 728 mmHg 95%
    05:00 +2°C° 0 mm 1 mps 729 mmHg 89%
    06:00 +4°C° 0 mm 1 mps 730 mmHg 83%
    07:00 +5°C° 0 mm 1 mps 730 mmHg 77%
    08:00 +6°C° 0 mm 2 mps 731 mmHg 64%
    09:00 +8°C° 0 mm 2 mps 731 mmHg 51%
    10:00 +10°C° 0 mm 2 mps 731 mmHg 39%
    11:00 +12°C° 0 mm 3 mps 730 mmHg 38%
    12:00 +13°C° 0 mm 3 mps 729 mmHg 38%
    13:00 +14°C° 0 mm 4 mps 729 mmHg 38%
    14:00 +15°C° 0 mm 4 mps 728 mmHg 41%
    15:00 +15°C° 0 mm 4 mps 728 mmHg 45%
    16:00 +17°C° 0 mm 4 mps 728 mmHg 49%
    17:00 +14°C° 0 mm 4 mps 728 mmHg 57%
    18:00 +13°C° 0 mm 3 mps 728 mmHg 64%
    19:00 +11°C° 0 mm 3 mps 727 mmHg 72%
    20:00 +10°C° 0 mm 2 mps 727 mmHg 77%
    21:00 +9°C° 0 mm 2 mps 727 mmHg 81%
    22:00 +8°C° 0 mm 2 mps 727 mmHg 85%
    23:00 +8°C° 0 mm 2 mps 727 mmHg 87%

    30 April, Tuesday

    Time Temperature Precipitation Wind Pressure Humidity
    00:00 +8°C° 0 mm 2 mps 727 mmHg 89%
    01:00 +8°C° 0 mm 2 mps 727 mmHg 91%
    02:00 +8°C° 0 mm 2 mps 727 mmHg 92%
    03:00 +8°C° 0 mm 2 mps 727 mmHg 94%
    04:00 +9°C° 0 mm 2 mps 727 mmHg 95%
    05:00 +9°C° 0 mm 2 mps 727 mmHg 92%
    06:00 +10°C° 0 mm 2 mps 727 mmHg 90%
    07:00 +11°C° 0 mm 3 mps 727 mmHg 88%
    08:00 +14°C° 0 mm 3 mps 727 mmHg 80%
    09:00 +18°C° 0 mm 4 mps 727 mmHg 73%
    10:00 +21°C° 0 mm 4 mps 727 mmHg 66%
    11:00 +23°C° 0 mm 4 mps 727 mmHg 60%
    12:00 +26°C° 0 mm 5 mps 727 mmHg 55%
    13:00 +28°C° 0 mm 5 mps 727 mmHg 50%
    14:00 +28°C° 0 mm 5 mps 727 mmHg 50%
    15:00 +29°C° 0 mm 5 mps 726 mmHg 50%
    16:00 +29°C° 0 mm 4 mps 726 mmHg 50%
    17:00 +27°C° 0 mm 4 mps 726 mmHg 60%
    18:00 +25°C° 0 mm 3 mps 726 mmHg 70%
    19:00 +21°C° 0 mm 2 mps 726 mmHg 80%
    20:00 +20°C° 0 mm 2 mps 726 mmHg 84%
    21:00 +19°C° 0 mm 2 mps 726 mmHg 89%
    22:00 +18°C° 0 mm 2 mps 726 mmHg 93%
    23:00 +18°C° 0.1 mm 2 mps 726 mmHg 93%
    Show more